Location: Guferjoch
(46.7462°N, 8.4506°E)
Time: 13:17:34
(UTC+00:00)

SeaSat 1 - Pass Details

Date: 14 July 2020
Orbit: 744 x 747 km, 108.0° (Epoch: 06 August)

Event Time Altitude Azimuth Distance (km) Brightness Sun altitude
Rises 00:36:20 0° 37° (NE) 3,201 7.0 -20.1°
Reaches altitude 10° 00:38:54 10° 49° (NE) 2,272 5.8 -20.0°
Maximum altitude 00:43:10 29° 108° (ESE) 1,357 3.7 -19.8°
Enters shadow 00:45:01 23° 144° (SE) 1,567 3.8 -19.7°
